Snowfall_Accumulation
0.0 0.0 0.0 0.0 0.0 0.0 0.0 0.0 0.0 0.0 0.0 0.0 0.0 0.0 0.0 0.0 0.0 0.0 0.0 0.0 0.0 0.0 0.0 0.0 0.0 0.0 0.0 0.0 0.0 0.0 0.0 0.0 0.0 0.0 0.0 0.0 0.0 0.0 0.0 0.0 0.0 0.0 0.0 0.0
0.0 0.0 0.0 0.0 0.0 0.0 0.0 0.0 0.0 0.0 0.0 0.0 0.0 0.0 0.0 0.0 0.0 0.0 0.0 0.0 0.0 0.0 0.0 0.0 0.0 0.0 0.0 0.0 0.0 0.0 0.0 0.0 0.0 0.0 0.0 0.0 0.0 0.0 0.0 0.0 0.0 0.0 0.0 0.0
0.0 0.0 0.0 0.0 0.0 0.0 0.0 0.0 0.0 0.0 0.0 0.0 0.0 0.0 0.0 0.0 0.0 0.0 0.0 0.0 0.0 0.0 0.0 0.0 0.0 0.0 0.0 0.0 0.0 0.0 0.0 0.0 0.0 0.0 0.0 0.0 0.0 0.0 0.0 0.0 0.0 0.0 0.0 0.0
0.0 0.0 0.0 0.0 0.0 0.0 0.0 0.0 0.0 0.0 0.0 0.1 0.0 0.0 0.0 0.0 0.0 0.0 0.0 0.0 0.0 0.0 0.0 0.0 0.0 0.0 0.0 0.0 0.0 0.0 0.0 0.0 0.0 0.0 0.0 0.0 0.0 0.0 0.0 0.0 0.0 0.0 0.0 0.0
0.1 0.0 0.0 0.0 0.0 0.0 0.0 0.0 0.0 0.0 0.0 0.0 0.0 0.0 0.0 0.0 0.0 0.0 0.0 0.0 0.0 0.0 0.0 0.0 0.0 0.0 0.0 0.0 0.0 0.0 0.0 0.0 0.0 0.0 0.0 0.0 0.0 0.0 0.0 0.0 0.0 0.0 0.0 0.0
0.0 0.0 0.0 0.0 0.0 0.0 0.0 0.0 0.0 0.0 0.1 1.7 0.0 0.0 0.0 0.0 0.0 0.0 0.0 0.0 0.0 0.0 0.0 0.0 0.0 0.0 0.0 0.0 0.0 0.0 0.0 0.0 0.0 0.0 0.0 0.0 0.0 0.0 0.0 0.0 0.0 0.0 0.0 0.0
0.0 0.0 0.0 0.0 0.0 0.0 0.0 0.1 2.0 3.1 4.4 1.1 0.0 0.0 0.0 0.0 0.0 0.0 0.0 0.0 0.0 0.0 0.0 0.0 0.0 0.0 0.0 0.0 0.0 0.0 0.0 0.0 0.0 0.0 0.0 0.0 0.0 0.0 0.0 0.0 0.0 0.0 0.0 0.0
0.3 1.0 0.0 0.0 0.0 0.1 0.0 0.1 0.7 0.6 0.8 0.2 0.0 0.1 0.0 0.0 0.0 0.0 0.0 0.0 0.0 0.0 0.0 0.0 0.0 0.0 0.0 0.0 0.0 0.0 0.0 0.0 0.0 0.0 0.0 0.0 0.0 0.0 0.0 0.0 0.0 0.0 0.0 0.0
0.0 0.0 0.0 0.0 0.0 0.0 0.0 0.1 0.0 0.1 2.2 0.8 0.0 0.0 0.0 0.0 0.0 0.0 0.0 0.0 0.0 0.0 0.0 0.0 0.0 0.0 0.0 0.0 0.0 0.0 0.0 0.0 0.0 0.0 0.0 0.0 0.0 0.0 0.0 0.0 0.0 0.0 0.0 0.0
0.0 0.1 0.0 0.0 0.0 0.0 0.0 0.0 0.2 0.8 2.9 1.4 0.0 0.0 0.0 0.0 0.0 0.0 0.0 0.0 0.0 0.0 0.0 0.0 0.0 0.0 0.0 0.0 0.0 0.0 0.0 0.0 0.0 0.0 0.0 0.0 0.0 0.0 0.0 0.0 0.0 0.0 0.0 0.0
0.0 0.0 0.2 0.0 0.0 0.0 0.0 0.1 0.3 0.0 0.2 0.6 0.7 0.0 0.0 0.0 0.0 0.0 0.0 0.0 0.0 0.0 0.0 0.0 0.0 0.0 0.0 0.0 0.0 0.0 0.0 0.0 0.0 0.0 0.0 0.0 0.0 0.0 0.0 0.0 0.0 0.0 0.0 0.0
0.0 0.0 0.7 0.2 0.0 0.0 0.0 0.0 0.0 0.3 0.1 0.2 0.5 0.4 0.0 0.0 0.0 0.0 0.0 0.0 0.0 0.0 0.0 0.0 0.0 0.0 0.0 0.0 0.0 0.0 0.0 0.0 0.0 0.0 0.0 0.0 0.0 0.0 0.0 0.0 0.0 0.0 0.0 0.0
0.0 0.3 2.3 1.0 0.2 0.0 0.0 0.0 0.0 0.0 0.1 0.3 2.5 0.4 0.0 0.0 0.0 0.0 0.0 0.0 0.0 0.0 0.0 0.0 0.0 0.0 0.0 0.0 0.0 0.0 0.0 0.0 0.0 0.0 0.0 0.0 0.0 0.0 0.0 0.0 0.0 0.0 0.0 0.0
nan 0.0 0.1 0.3 0.1 0.0 0.0 0.0 0.0 0.0 1.3 0.2 0.2 0.0 0.0 0.0 0.0 0.0 0.0 0.0 0.0 0.0 0.0 0.0 0.0 0.0 0.0 0.0 0.0 0.0 0.0 0.0 0.0 0.0 0.0 0.0 0.0 0.0 0.0 0.0 0.0 0.0 0.0 0.0
0.0 1.1 0.0 0.0 0.0 0.0 0.0 0.0 0.0 0.0 0.0 0.2 0.0 0.0 0.0 0.0 0.0 0.0 0.0 0.0 0.0 0.0 0.0 0.0 0.0 0.0 0.0 0.0 0.0 0.0 0.0 0.0 0.0 0.0 0.0 0.0 0.0 0.0 0.0 0.0 0.0 0.0 0.0 0.0
0.0 1.1 0.0 0.7 0.0 0.0 0.1 0.0 0.0 0.0 0.0 0.0 0.0 0.0 0.0 0.0 0.0 0.0 0.0 0.0 0.0 0.0 0.0 0.0 0.0 0.0 0.0 0.0 0.0 0.0 0.0 0.0 0.0 0.0 0.0 0.0 0.0 0.1 0.1 0.1 0.1 0.1 0.1 0.1
0.0 0.8 4.5 13.4 0.1 0.1 10.3 0.0 0.0 0.0 0.0 0.0 0.0 0.0 0.0 0.0 0.0 0.0 0.0 0.0 0.0 0.0 0.0 0.0 0.0 0.0 0.0 0.0 0.0 0.0 0.0 0.0 0.0 0.1 0.2 0.2 0.1 0.2 0.1 0.1 0.1 0.1 0.1 0.1
0.0 0.7 2.4 13.3 6.5 36.1 1.6 0.0 0.0 0.0 0.0 0.0 0.0 0.0 0.0 0.0 0.0 0.0 0.0 0.0 0.0 0.0 0.0 0.0 0.0 0.0 0.0 0.0 0.0 0.0 0.0 0.0 0.1 0.2 0.3 0.3 0.2 0.6 0.3 0.2 0.2 0.2 0.1 0.2
0.0 0.0 8.3 25.8 17.0 0.3 0.0 0.0 0.0 0.0 0.0 0.0 0.0 0.0 0.0 0.0 0.0 0.0 0.0 0.0 0.0 0.0 0.0 0.0 0.0 0.0 0.0 0.0 0.0 0.0 0.1 0.1 0.1 0.1 0.1 0.2 0.3 1.0 0.5 1.9 0.6 0.3 0.6 0.5
0.0 0.0 0.3 20.1 26.4 22.4 0.0 0.0 0.0 0.0 0.6 0.0 0.0 0.0 0.0 0.0 0.1 0.0 0.0 0.0 0.0 0.0 0.0 0.0 0.0 0.0 0.0 0.0 0.0 0.1 0.1 0.2 0.2 0.1 0.1 0.2 0.5 2.2 1.8 0.6 1.4 1.2 1.3 1.7
4.1 6.0 19.7 17.8 20.1 6.0 0.2 0.1 0.0 3.9 0.4 0.4 0.0 0.0 0.0 0.1 0.0 0.0 0.0 0.0 0.0 0.0 0.0 0.0 0.0 0.0 0.0 0.0 0.1 0.1 0.2 0.2 0.3 0.6 0.6 0.8 0.8 2.8 1.2 1.7 1.3 2.6 3.9 2.8
1.7 9.5 18.0 12.2 20.0 28.0 0.1 0.0 0.1 0.1 0.2 0.2 0.1 0.0 0.0 0.0 0.0 0.0 0.0 0.0 0.0 0.0 0.0 0.0 0.0 0.0 0.0 0.2 0.2 0.4 0.3 0.4 1.1 1.5 1.8 2.4 3.8 3.1 2.9 7.3 4.0 6.4 6.4 6.9
5.8 0.6 4.8 0.8 3.5 0.1 0.0 0.1 0.0 0.0 0.1 0.1 0.0 0.0 0.0 0.0 0.0 0.0 0.0 0.0 0.0 0.0 0.0 0.0 0.3 0.7 0.0 1.0 0.6 1.1 1.0 1.2 2.2 4.5 6.7 6.7 5.8 5.8 6.0 8.5 6.5 7.4 7.4 8.8
0.8 0.7 3.7 3.0 2.0 0.4 0.1 0.0 0.0 0.0 0.0 0.0 0.0 0.0 0.0 0.0 0.0 0.0 0.0 0.0 0.0 0.4 0.8 1.1 1.5 2.2 2.1 1.8 2.3 2.3 2.2 2.5 7.7 8.2 5.0 4.1 5.5 4.2 5.4 5.3 6.1 8.9 8.0 7.5
0.5 0.6 1.6 2.6 1.0 0.6 0.4 0.1 0.0 0.0 0.0 0.0 0.0 0.0 0.0 0.0 0.0 0.0 0.3 0.5 0.3 0.7 1.0 1.4 2.1 2.1 2.0 1.8 2.1 3.2 2.8 2.9 4.6 6.0 3.7 4.4 5.9 6.7 4.3 3.6 5.3 4.8 3.0 6.4
0.1 0.1 0.8 1.8 0.2 0.2 0.1 0.0 0.0 0.0 0.0 0.1 0.1 0.1 0.2 0.2 0.1 0.3 0.5 0.3 0.5 1.0 1.4 1.9 2.2 2.1 2.5 3.2 3.6 4.8 6.1 4.7 5.4 4.1 5.4 4.9 4.8 4.4 4.1 4.8 5.0 nan nan nan
Water_Equivalent
0.00 0.00 0.00 0.00 0.00 0.00 0.00 0.00 0.00 0.00 0.00 0.00 0.00 0.00 0.00 0.00 0.00 0.00 0.00 0.00 0.00 0.00 0.00 0.00 0.00 0.00 0.00 0.00 0.00 0.00 0.00 0.00 0.00 0.00 0.00 0.00 0.00 0.00 0.00 0.00 0.00 0.00 0.00 0.00
0.00 0.00 0.00 0.00 0.00 0.00 0.00 0.00 0.00 0.00 0.00 0.00 0.00 0.00 0.00 0.00 0.00 0.00 0.00 0.00 0.00 0.00 0.00 0.00 0.00 0.00 0.00 0.00 0.00 0.00 0.00 0.00 0.00 0.00 0.00 0.00 0.00 0.00 0.00 0.00 0.00 0.00 0.00 0.00
0.00 0.00 0.00 0.00 0.00 0.00 0.00 0.00 0.00 0.00 0.00 0.00 0.00 0.00 0.00 0.00 0.00 0.00 0.00 0.00 0.00 0.00 0.00 0.00 0.00 0.00 0.00 0.00 0.00 0.00 0.00 0.00 0.00 0.00 0.00 0.00 0.00 0.00 0.00 0.00 0.00 0.00 0.00 0.00
0.00 0.00 0.00 0.00 0.00 0.00 0.00 0.00 0.00 0.00 0.00 0.02 0.00 0.00 0.00 0.00 0.00 0.00 0.00 0.00 0.00 0.00 0.00 0.00 0.00 0.00 0.00 0.00 0.00 0.00 0.00 0.00 0.00 0.00 0.00 0.00 0.00 0.00 0.00 0.00 0.00 0.00 0.00 0.00
0.02 0.00 0.00 0.00 0.00 0.00 0.00 0.00 0.00 0.00 0.00 0.00 0.00 0.00 0.00 0.00 0.00 0.00 0.00 0.00 0.00 0.00 0.00 0.00 0.00 0.00 0.00 0.00 0.00 0.00 0.00 0.00 0.00 0.00 0.00 0.00 0.00 0.00 0.00 0.00 0.00 0.00 0.00 0.00
0.00 0.00 0.00 0.00 0.00 0.00 0.00 0.00 0.00 0.00 0.01 0.25 0.00 0.00 0.00 0.00 0.00 0.00 0.00 0.00 0.00 0.00 0.00 0.00 0.00 0.00 0.00 0.00 0.00 0.00 0.00 0.00 0.00 0.00 0.00 0.00 0.00 0.00 0.00 0.00 0.00 0.00 0.00 0.00
0.00 0.00 0.00 0.00 0.00 0.00 0.00 0.02 0.28 0.43 0.63 0.18 0.00 0.01 0.00 0.00 0.00 0.00 0.00 0.00 0.00 0.00 0.00 0.00 0.00 0.00 0.00 0.00 0.00 0.00 0.00 0.00 0.00 0.00 0.00 0.00 0.00 0.00 0.00 0.00 0.00 0.00 0.00 0.00
0.07 0.16 0.00 0.00 0.00 0.03 0.01 0.01 0.12 0.10 0.17 0.05 0.01 0.02 0.00 0.00 0.00 0.00 0.00 0.00 0.00 0.00 0.00 0.00 0.00 0.00 0.00 0.00 0.00 0.00 0.00 0.00 0.00 0.00 0.00 0.00 0.00 0.00 0.00 0.00 0.00 0.00 0.00 0.00
0.00 0.00 0.00 0.00 0.00 0.00 0.00 0.02 0.00 0.01 0.41 0.20 0.00 0.00 0.00 0.00 0.00 0.00 0.00 0.00 0.00 0.00 0.00 0.00 0.00 0.00 0.00 0.00 0.00 0.00 0.00 0.00 0.00 0.00 0.00 0.00 0.00 0.00 0.00 0.00 0.00 0.00 0.00 0.00
0.00 0.01 0.00 0.00 0.00 0.00 0.00 0.00 0.05 0.14 0.54 0.26 0.00 0.00 0.00 0.00 0.00 0.00 0.00 0.00 0.00 0.00 0.00 0.00 0.00 0.00 0.00 0.00 0.00 0.00 0.00 0.00 0.00 0.00 0.00 0.00 0.00 0.00 0.00 0.00 0.00 0.00 0.00 0.00
0.00 0.00 0.04 0.00 0.00 0.00 0.00 0.02 0.05 0.00 0.04 0.15 0.17 0.00 0.00 0.00 0.00 0.00 0.00 0.00 0.00 0.00 0.00 0.00 0.00 0.00 0.00 0.00 0.00 0.00 0.00 0.00 0.00 0.00 0.00 0.00 0.00 0.00 0.00 0.00 0.00 0.00 0.00 0.00
0.00 0.00 0.21 0.05 0.00 0.00 0.00 0.00 0.00 0.08 0.03 0.06 0.14 0.09 0.00 0.00 0.00 0.00 0.00 0.00 0.00 0.00 0.00 0.00 0.00 0.00 0.00 0.00 0.00 0.00 0.00 0.00 0.00 0.00 0.00 0.00 0.00 0.00 0.00 0.00 0.00 0.00 0.00 0.00
0.00 0.08 0.53 0.19 0.03 0.00 0.00 0.00 0.00 0.00 0.04 0.07 0.55 0.09 0.00 0.00 0.00 0.00 0.00 0.00 0.00 0.00 0.00 0.00 0.00 0.00 0.00 0.00 0.00 0.00 0.00 0.00 0.00 0.00 0.00 0.00 0.00 0.00 0.00 0.00 0.00 0.00 0.00 0.00
nan 0.01 0.03 0.10 0.02 0.00 0.00 0.00 0.00 0.00 0.31 0.08 0.06 0.00 0.00 0.00 0.00 0.00 0.00 0.00 0.00 0.00 0.00 0.00 0.00 0.00 0.00 0.00 0.00 0.00 0.00 0.00 0.00 0.00 0.00 0.00 0.00 0.00 0.00 0.00 0.00 0.00 0.00 0.00
0.00 0.33 0.00 0.00 0.00 0.00 0.00 0.00 0.00 0.00 0.00 0.05 0.00 0.00 0.00 0.00 0.00 0.00 0.00 0.00 0.00 0.00 0.00 0.00 0.00 0.00 0.00 0.00 0.00 0.00 0.00 0.00 0.00 0.00 0.00 0.00 0.00 0.00 0.00 0.00 0.01 0.01 0.01 0.00
0.00 0.38 0.01 0.21 0.00 0.00 0.02 0.00 0.00 0.00 0.00 0.00 0.00 0.00 0.00 0.00 0.00 0.00 0.00 0.00 0.00 0.00 0.00 0.00 0.00 0.00 0.00 0.00 0.00 0.00 0.00 0.00 0.00 0.00 0.00 0.00 0.01 0.02 0.02 0.03 0.02 0.02 0.02 0.02
0.01 0.27 1.39 2.77 0.03 0.03 1.60 0.01 0.00 0.00 0.00 0.00 0.00 0.00 0.00 0.00 0.00 0.00 0.00 0.00 0.00 0.00 0.00 0.00 0.00 0.00 0.00 0.00 0.00 0.00 0.00 0.00 0.01 0.02 0.04 0.04 0.03 0.04 0.03 0.03 0.03 0.02 0.02 0.02
0.01 0.25 0.84 2.97 1.51 4.66 0.28 0.00 0.00 0.00 0.00 0.00 0.00 0.00 0.00 0.00 0.00 0.00 0.00 0.00 0.00 0.00 0.00 0.00 0.00 0.00 0.00 0.00 0.00 0.00 0.00 0.01 0.02 0.03 0.06 0.06 0.04 0.10 0.05 0.04 0.04 0.03 0.03 0.03
0.00 0.01 1.91 4.10 2.65 0.08 0.00 0.00 0.00 0.00 0.00 0.00 0.00 0.00 0.00 0.00 0.00 0.00 0.00 0.00 0.00 0.00 0.00 0.00 0.00 0.00 0.00 0.00 0.00 0.01 0.02 0.02 0.02 0.02 0.03 0.03 0.06 0.16 0.08 0.27 0.08 0.05 0.10 0.08
0.00 0.00 0.12 3.86 4.22 2.85 0.00 0.00 0.00 0.00 0.16 0.00 0.00 0.00 0.00 0.00 0.02 0.00 0.00 0.00 0.00 0.00 0.00 0.00 0.00 0.00 0.00 0.00 0.00 0.02 0.02 0.04 0.03 0.02 0.02 0.03 0.08 0.31 0.24 0.09 0.20 0.18 0.20 0.22
1.00 1.50 3.89 3.52 3.56 1.22 0.05 0.03 0.00 0.59 0.11 0.12 0.01 0.00 0.00 0.02 0.00 0.00 0.00 0.00 0.00 0.00 0.00 0.00 0.00 0.00 0.00 0.01 0.03 0.03 0.03 0.04 0.05 0.09 0.09 0.11 0.11 0.37 0.18 0.24 0.18 0.35 0.50 0.33
0.32 1.77 3.33 2.35 3.28 3.86 0.03 0.01 0.02 0.04 0.04 0.05 0.02 0.00 0.00 0.00 0.00 0.00 0.00 0.00 0.00 0.00 0.00 0.00 0.00 0.00 0.00 0.04 0.04 0.07 0.05 0.07 0.16 0.19 0.21 0.27 0.46 0.40 0.39 0.85 0.52 0.77 0.72 0.75
0.90 0.14 1.11 0.23 0.83 0.02 0.01 0.03 0.00 0.02 0.05 0.02 0.01 0.00 0.00 0.00 0.00 0.00 0.00 0.00 0.00 0.00 0.00 0.00 0.07 0.10 0.01 0.16 0.11 0.18 0.13 0.15 0.24 0.50 0.74 0.75 0.69 0.72 0.74 1.08 0.75 0.99 0.88 1.02
0.15 0.15 0.83 0.65 0.42 0.09 0.04 0.01 0.00 0.00 0.00 0.00 0.00 0.00 0.00 0.00 0.00 0.00 0.00 0.00 0.00 0.07 0.12 0.15 0.21 0.25 0.24 0.22 0.26 0.29 0.24 0.27 0.98 1.00 0.53 0.43 0.58 0.51 0.63 0.80 0.90 1.29 1.05 0.89
0.12 0.14 0.32 0.44 0.17 0.11 0.09 0.03 0.00 0.00 0.00 0.00 0.00 0.00 0.00 0.00 0.00 0.00 0.06 0.10 0.06 0.10 0.13 0.18 0.24 0.23 0.22 0.19 0.21 0.34 0.30 0.35 0.57 0.66 0.35 0.48 0.71 0.81 0.47 0.42 0.73 0.63 0.40 0.90
0.01 0.02 0.14 0.34 0.04 0.05 0.01 0.00 0.00 0.00 0.00 0.02 0.02 0.03 0.03 0.04 0.03 0.05 0.08 0.06 0.08 0.13 0.15 0.19 0.22 0.20 0.21 0.28 0.32 0.46 0.65 0.60 0.63 0.40 0.58 0.55 0.55 0.50 0.46 0.50 0.52 nan nan nan
SL_Ratio
nan nan nan nan nan nan nan nan nan nan nan nan nan nan nan nan nan nan nan nan nan nan nan nan nan nan nan nan nan nan nan nan nan nan nan nan nan nan nan nan nan nan nan nan
nan nan nan nan nan nan nan nan nan nan nan nan nan nan nan nan nan nan nan nan nan nan nan nan nan nan nan nan nan nan nan nan nan nan nan nan nan nan nan nan nan nan nan nan
nan nan nan nan nan nan nan nan nan nan nan nan nan nan nan nan nan nan nan nan nan nan nan nan nan nan nan nan nan nan nan nan nan nan nan nan nan nan nan nan nan nan nan nan
nan nan nan nan nan nan nan nan nan nan nan 5.5 nan 5.0 nan nan nan nan nan nan nan nan nan nan nan nan nan nan nan nan nan nan nan nan nan nan nan nan nan nan nan nan nan nan
3.1 nan nan nan nan nan nan nan nan nan nan 0.0 nan nan nan nan nan nan nan nan nan nan nan nan nan nan nan nan nan nan nan nan nan nan nan nan nan nan nan nan nan nan nan nan
nan nan nan nan nan nan nan nan nan nan 5.2 6.8 nan nan nan nan nan nan nan nan nan nan nan nan nan nan nan nan nan nan nan nan nan nan nan nan nan nan nan nan nan nan nan nan
5.0 nan nan nan nan nan nan 4.1 7.1 7.1 7.0 6.0 nan 3.5 nan nan nan nan nan nan nan nan nan nan nan nan nan nan nan nan nan nan nan nan nan nan nan nan nan nan nan nan nan nan
5.0 6.1 nan nan 10.0 3.7 3.4 4.3 5.3 6.1 4.7 3.6 4.0 3.8 nan nan nan nan nan nan nan nan nan nan nan nan nan nan nan nan nan nan nan nan nan nan nan nan nan nan nan nan nan nan
4.0 4.2 nan nan nan nan 4.3 4.7 nan 4.9 5.5 3.9 nan nan nan nan nan nan nan nan nan nan nan nan nan nan nan nan nan nan nan nan nan nan nan nan nan nan nan nan nan nan nan nan
nan 5.4 nan nan nan nan nan nan 5.1 5.6 5.5 5.5 nan nan nan nan nan nan nan nan nan nan nan nan nan nan nan nan nan nan nan nan nan nan nan nan nan nan nan nan nan nan nan nan
nan 6.7 5.2 nan nan 10.0 4.4 4.8 5.5 5.0 4.2 4.2 4.3 3.6 nan nan nan nan nan nan nan nan nan nan nan nan nan nan nan nan nan nan nan nan nan nan nan nan nan nan nan nan nan nan
nan nan 3.7 4.7 nan nan nan nan nan 3.2 4.3 3.7 3.6 4.6 nan nan nan nan nan nan nan nan nan nan nan nan nan nan nan nan nan nan nan nan nan nan nan nan nan nan nan nan nan nan
nan 3.4 4.4 5.3 7.8 nan nan nan nan nan 3.1 4.2 4.6 4.2 nan nan nan nan nan nan nan nan nan nan nan nan nan nan nan nan nan nan nan nan nan nan nan nan nan nan nan nan nan nan
nan 3.0 3.6 3.4 4.9 nan 3.3 nan nan nan 4.2 3.1 3.1 nan nan nan nan nan nan nan nan nan nan nan nan nan nan nan nan nan nan nan nan nan nan nan nan nan nan nan nan nan nan nan
nan 3.3 nan nan nan nan nan nan nan nan nan 3.7 nan nan nan nan nan nan nan nan nan nan nan nan nan nan nan nan nan nan nan nan nan nan nan nan nan nan nan 3.3 2.5 2.9 3.2 nan
nan 3.0 2.4 3.5 nan nan 2.9 nan nan nan nan nan nan nan nan nan nan nan nan nan nan nan nan nan nan nan nan nan nan nan nan nan nan nan 0.0 0.0 3.4 3.6 3.5 3.5 3.5 3.7 3.9 3.9
2.6 2.8 3.2 4.8 2.9 3.1 6.4 3.0 nan nan nan nan nan nan nan nan nan nan nan nan nan nan nan nan nan nan nan nan nan nan nan nan 3.4 3.7 4.1 4.2 4.1 4.5 4.1 4.0 4.6 5.0 4.9 4.8
2.5 2.7 2.9 4.5 4.3 7.7 5.7 nan nan nan nan nan nan nan nan nan nan nan nan nan nan nan nan nan nan nan nan nan nan nan 2.9 3.6 3.8 4.6 4.4 4.7 4.7 5.6 5.8 5.9 5.7 5.5 5.3 5.5
nan 2.4 4.4 6.3 6.4 4.2 nan nan nan 3.3 nan nan nan nan nan nan nan nan nan nan nan nan nan nan nan nan nan nan nan 3.3 4.2 4.5 4.4 4.6 4.8 4.9 5.4 6.2 6.5 7.3 6.7 6.3 6.3 6.5
0.0 nan 2.5 5.2 6.2 7.8 4.0 0.0 nan nan 3.8 0.0 nan nan nan nan 2.7 nan nan nan nan nan nan nan nan nan nan nan nan 3.9 4.7 5.6 5.5 5.3 5.1 5.5 6.0 7.1 7.2 6.5 7.2 6.6 6.5 7.7
4.1 4.0 5.1 5.1 5.6 4.9 3.1 3.3 nan 6.7 3.9 3.5 3.0 3.3 2.3 2.5 nan nan nan nan nan nan nan nan nan nan nan 3.4 4.1 4.5 5.0 5.5 5.2 6.3 7.0 7.3 6.9 7.6 6.9 7.1 6.9 7.3 7.9 8.5
5.4 5.4 5.4 5.2 6.1 7.3 3.1 3.5 4.2 3.0 3.6 3.6 3.1 2.0 nan nan nan nan nan nan nan nan nan nan nan nan nan 4.5 4.5 5.4 5.4 5.8 6.9 7.6 8.4 8.9 8.2 7.7 7.4 8.6 7.7 8.3 8.9 9.1
6.5 4.3 4.3 3.7 4.1 2.8 3.1 3.2 2.9 2.6 2.9 3.3 3.1 0.0 nan nan nan nan nan nan nan nan nan nan 4.7 6.3 2.9 6.3 5.2 6.0 7.4 8.3 9.3 9.0 9.0 8.8 8.4 8.0 8.1 7.9 8.6 7.5 8.4 8.6
5.1 4.7 4.4 4.6 4.8 4.4 4.0 3.1 0.0 1.7 0.0 nan nan nan nan nan nan nan 0.0 3.6 nan 5.7 6.6 7.2 7.4 8.7 8.5 8.4 8.9 7.8 9.0 9.2 7.9 8.2 9.3 9.7 9.4 8.1 8.6 6.7 6.7 6.9 7.6 8.4
4.3 4.4 5.1 5.8 5.6 5.0 4.5 3.9 nan 0.0 nan nan nan nan nan nan nan nan 4.8 5.5 5.2 7.3 7.9 7.8 9.0 9.2 9.2 9.4 9.8 9.4 9.1 8.3 8.0 9.2 10.5 9.2 8.3 8.3 9.1 8.7 7.4 7.5 7.4 7.1
6.7 5.9 5.5 5.4 4.5 4.0 4.4 nan nan nan nan 3.7 4.0 4.5 4.6 4.5 4.4 5.2 5.9 5.7 6.5 7.9 9.1 9.7 10.2 10.7 11.9 11.7 11.4 10.5 9.4 7.9 8.5 10.2 9.4 8.8 8.7 8.8 9.0 9.6 9.6 nan nan nan